{"data":{"norad_id":63732,"intl_designator":"2025-088J","name":"KUIPER-00016","alt_names":[],"object_type":"PAYLOAD","status":"ACTIVE","operator":null,"country":"US","launch_date":"2025-04-28","launch_site_code":"AFETR","launch_vehicle":null,"mission":null,"orbit_class":"UNKNOWN","rcs_meters":null,"size_class":null,"mass_kg":null,"dimensions":null,"purposes":[],"wikipedia_slug":null,"has_3d_model":false,"image_url":null,"decayed_at":null,"tle_current":{"epoch":"2026-05-25T02:55:21.724608Z","epoch_age_seconds":54804,"freshness":"FRESH","line1":"1 63732U 25088J   26145.12177922  .00001251  00000+0  19264-3 0  9996","line2":"2 63732  51.8994 132.5878 0000546  68.2335 291.8685 14.80017799 58665","mean_motion":14.80017799,"eccentricity":5.46e-5,"inclination_deg":51.8994,"raan_deg":132.5878,"arg_perigee_deg":68.2335,"mean_anomaly_deg":291.8685,"bstar":0.00019264,"rev_number":5866,"period_min":97.296127179887,"perigee_km":628.88534821617,"apogee_km":629.65055683698,"semimajor_km":7007.4049525266,"source":"CELESTRAK","updated_at":"2026-05-25T13:38:03.926392Z"}}}